Tracking 17938 objects as of 24-February-2017
HD Live streaming from Space Station
objects crossing your sky now

OSCAR 3

Track OSCAR 3 now!
10-day predictions
OSCAR 3 is classified as:


NORAD ID: 1293
Int'l Code: 1965-016F
Perigee: 867.7 km
Apogee: 891.8 km
Inclination: 70.1 °
Period: 102.4 minutes
Semi major axis: 7250 km
RCS: 0.24 m2 (medium)
Launch date: March 9, 1965
Source: United States (US)
Launch site: AIR FORCE WESTERN TEST RANGE (AFWTR)
Uplink (MHz): 145.975-146.025
Downlink (MHz): 144.325-144.375
Beacon (MHz):
Mode: SSB CW
Call sign:
Status: Inactive

Your satellite tracking list
Your tracking list is empty





NASA's NSSDC Master Catalog

Two Line Element Set (TLE):
1 01293U 65016F   17054.49559814  .00000081  00000-0  82101-4 0  9990
2 01293  70.0732 215.3898 0016605  11.9462 348.2040 14.06144830654369
Source of the keplerian elements: AFSPC